This is the latest recevied weather packets stored in our database for station/object iz1wiy-3. If no packets are shown the sender has not sent any weather packets the latest 1 day(s).
| Time | Temp. | Humidity | Pressure | Rain* | Wind** | Luminosity | Snow |
|---|---|---|---|---|---|---|---|
| 1778026383 | 16.67° C | 89% | 1010.9 hPa | 0.76 mm | 0.45 m/s, 217° | - | - |
| 1778026323 | 16.67° C | 89% | 1011 hPa | 1.02 mm | 0.89 m/s, 215° | - | - |
| 1778026263 | 16.67° C | 89% | 1011 hPa | 1.02 mm | 0.89 m/s, 210° | - | - |
| 1778026203 | 16.67° C | 89% | 1011 hPa | 1.02 mm | 0.89 m/s, 206° | - | - |
| 1778026143 | 16.67° C | 89% | 1011.1 hPa | 1.02 mm | 1.34 m/s, 206° | - | - |
| 1778026083 | 16.67° C | 89% | 1011 hPa | 1.02 mm | 1.34 m/s, 206° | - | - |
| 1778026023 | 16.67° C | 89% | 1011 hPa | 1.02 mm | 1.79 m/s, 210° | - | - |
| 1778025963 | 16.67° C | 89% | 1011 hPa | 1.02 mm | 1.79 m/s, 215° | - | - |
| 1778025903 | 16.67° C | 89% | 1011 hPa | 1.02 mm | 1.79 m/s, 216° | - | - |
| 1778025843 | 16.67° C | 89% | 1010.9 hPa | 1.02 mm | 2.24 m/s, 217° | - | - |
| 1778025783 | 16.67° C | 89% | 1010.9 hPa | 1.02 mm | 2.24 m/s, 215° | - | - |
| 1778025723 | 16.67° C | 89% | 1010.9 hPa | 1.02 mm | 2.24 m/s, 216° | - | - |
| 1778025664 | 16.67° C | 89% | 1010.9 hPa | 1.02 mm | 2.68 m/s, 218° | - | - |
| 1778025604 | 16.67° C | 89% | 1011 hPa | 1.02 mm | 2.68 m/s, 220° | - | - |
| 1778025543 | 16.67° C | 89% | 1011.1 hPa | 1.02 mm | 2.68 m/s, 222° | - | - |
| 1778025483 | 16.67° C | 89% | 1011.1 hPa | 1.02 mm | 2.68 m/s, 222° | - | - |
| 1778025424 | 16.67° C | 90% | 1011.1 hPa | 1.02 mm | 2.68 m/s, 221° | - | - |
| 1778025363 | 16.67° C | 90% | 1011.2 hPa | 1.02 mm | 2.68 m/s, 221° | - | - |
| 1778025303 | 16.67° C | 90% | 1011.3 hPa | 1.02 mm | 2.68 m/s, 221° | - | - |
| 1778025244 | 16.67° C | 90% | 1011.3 hPa | 0.76 mm | 2.68 m/s, 222° | - | - |
| 1778025183 | 16.67° C | 90% | 1011.3 hPa | 0.76 mm | 3.13 m/s, 223° | - | - |
| 1778025123 | 16.67° C | 90% | 1011.3 hPa | 0.76 mm | 3.13 m/s, 224° | - | - |
| 1778025063 | 16.67° C | 90% | 1011.3 hPa | 0.76 mm | 3.13 m/s, 224° | - | - |
| 1778025003 | 16.67° C | 90% | 1011.3 hPa | 0.76 mm | 2.68 m/s, 222° | - | - |
| 1778024943 | 16.67° C | 90% | 1011.3 hPa | 0.51 mm | 2.68 m/s, 222° | - | - |
* Rain latest hour (hover to see other rain measurements)
** Current wind speed in m/s (hover to see current wind gust speed)